Flag for Germany Weather past 2 weeks in Magdeburg, Saxony-Anhalt, Germany

Now
63 °F

Overcast.


Feels Like: 63 °F
Forecast: 55 / 65 °F
Wind: 1 mph from South

Location: Magdeburg

Current Time: Aug 30, 2014 at 10:36:59 PM

Latest Report: Aug 30, 2014 at 10:00 PM


Visibility: 22 mi

Pressure: 29.98 "Hg

Humidity: 83%

Dew point: 57 °F

Location of MagdeburgLocation

Historic Weather in Magdeburg — Graph

°F

Magdeburg temperature yesterday

Maximum temperature yesterday: 73 °F (at 6:00 PM)
Minimum temperature yesterday: 58 °F (at 6:00 AM)
Average temperature yesterday: 64 °F

Past Weeks' High & Low Weather Summary

 TemperatureHumidityPressure
High75 °F (Aug 28, 6:00 PM)97% (Aug 26, 4:00 AM)30.08 "Hg (Aug 26, 4:00 AM)
Low45 °F (Aug 25, 7:00 AM)31% (Aug 28, 4:00 PM)29.62 "Hg (Aug 18, 3:00 PM)
Average59 °F70%29.92 "Hg
* Reported Aug 15 9:00 PM — Aug 30 9:00 PM, Magdeburg, Weather by CustomWeather, © 2014

Note: Actual official high and low records may vary slightly from our data, if they occured in-between our weather recording intervals... More about our weather records

Advertising

Magdeburg weather history for previous 24 hours

 ConditionsComfort  
Time TempWeatherWind HumidityBarometerVisibility
9:00 PM
Aug 30
64 °FOvercast.1 mph79%29.99 "Hg28 mi
8:00 PM66 °FOvercast.2 mph70%29.98 "Hg28 mi
7:00 PM67 °FOvercast.5 mph65%29.98 "Hg37 mi
6:00 PM69 °FOvercast.3 mph62%29.99 "Hg34 mi
4:00 PM68 °FOvercast.2 mph68%30.00 "Hg31 mi
3:00 PM68 °FOvercast.5 mph68%30.01 "Hg28 mi
2:00 PM66 °FOvercast.2 mph73%30.02 "Hg28 mi
1:00 PM67 °FOvercast.5 mph65%30.02 "Hg28 mi
12:00 PM67 °FOvercast.3 mph67%30.03 "Hg28 mi
10:00 AM66 °FPartly sunny.3 mph70%30.02 "Hg19 mi
9:00 AM62 °FPartly sunny.3 mph81%30.02 "Hg12 mi
8:00 AM58 °FPartly sunny.2 mph90%30.01 "Hg11 mi
7:00 AM58 °FPartly sunny.1 mph90%30.01 "Hg11 mi
6:00 AM58 °FOvercast.2 mph90%30.01 "Hg12 mi
4:00 AM58 °FOvercast.1 mph91%30.01 "Hg15 mi
3:00 AM59 °FOvercast.2 mph87%30.01 "Hg22 mi
2:00 AM60 °FPassing clouds.2 mph85%30.01 "Hg31 mi
1:00 AM60 °FOvercast.2 mph85%30.01 "Hg31 mi
12:00 AM62 °FOvercast.2 mph84%30.01 "Hg34 mi
10:00 PM
Aug 29
62 °FOvercast.2 mph92%29.99 "Hg6 mi
Weather by CustomWeather, © 2014

See weather overviewHow to use our weather pages